Cumberland, WV

5:35 PM EDT on October 21, 2017 (GMT -0400)
Greater Cumberland Regional

Weather History for KCBE - February, 2014

Change the Weather History Date:

Thursday, February 20, 2014

  Actual Average (KMRB) Record (KMRB)
Temperature  
Mean Temperature 40 °F -  
Max Temperature 53 °F 46 °F 70 °F (1939)
Min Temperature 28 °F 26 °F 0 °F (1979)
Degree Days  
Heating Degree Days 24    
Moisture  
Dew Point 29 °F    
Average Humidity 69    
Maximum Humidity 100    
Minimum Humidity 35    
Precipitation  
Precipitation 0.00 in - - ()
Sea Level Pressure  
Sea Level Pressure 30.10 in    
Wind  
Wind Speed 2 mph (NNW)    
Max Wind Speed 6 mph    
Max Gust Speed -    
Visibility 9 miles    
Events      
Averages and records for this station are not official NWS values.
T = Trace of Precipitation, MM = Missing Value Source: NWS Daily Summary

Daily Weather History Graph

Daily Weather History Graph

Search for Another Location

Airport or City:

Trip Planner

Search our weather history database for the weather conditions in past years. The results will help you decide how hot, cold, wet, or windy it might be!

Date:

Astronomy

Feb. 20, 2014 Rise Set
Actual Time 7:00 AM EST 5:57 PM EST
Civil Twilight 6:33 AM EST 6:24 PM EST
Nautical Twilight 6:02 AM EST 6:56 PM EST
Astronomical Twilight 5:30 AM EST 7:27 PM EST
Moon 11:48 PM EST (2/20) 9:43 AM EST (2/20)
Length of Visible Light 11h 51m
Length of Day
10h 56m
Waning Gibbous, 71% of the Moon is Illuminated
Feb 20
Waning Gibbous
Feb 22
Last Quarter
Mar 1
New
Mar 8
First Quarter
Mar 16
Full

Hourly Weather History & Observations

Time (EST) Temp. Windchill Dew Point Humidity Pressure Visibility Wind Dir Wind Speed Gust Speed Precip Events Conditions
12:00 AM 39.2 °F 37.0 °F 28.4 °F 65% 30.17 in 10.0 mi WNW 3.5 mph - N/A   Clear
12:20 AM 37.4 °F - 30.2 °F 75% 30.17 in 10.0 mi Calm Calm - N/A   Clear
12:40 AM 35.6 °F 31.7 °F 30.2 °F 81% 30.17 in 10.0 mi North 4.6 mph - N/A   Clear
1:00 AM 33.8 °F - 30.2 °F 87% 30.17 in 10.0 mi Calm Calm - N/A   Clear
1:20 AM 33.8 °F 28.6 °F 30.2 °F 87% 30.18 in 10.0 mi WNW 5.8 mph - N/A   Clear
1:40 AM 33.8 °F 30.8 °F 30.2 °F 87% 30.18 in 10.0 mi NW 3.5 mph - N/A   Clear
2:00 AM 32.0 °F 28.7 °F 30.2 °F 93% 30.18 in 10.0 mi NNW 3.5 mph - N/A   Clear
2:20 AM 32.0 °F 28.7 °F 28.4 °F 87% 30.18 in 10.0 mi North 3.5 mph - N/A   Clear
2:40 AM 32.0 °F - 28.4 °F 87% 30.19 in 10.0 mi Calm Calm - N/A   Clear
3:00 AM 32.0 °F - 28.4 °F 87% 30.20 in 10.0 mi Calm Calm - N/A   Clear
3:20 AM 32.0 °F - 30.2 °F 93% 30.20 in 10.0 mi Calm Calm - N/A   Clear
3:40 AM 32.0 °F - 30.2 °F 93% 30.20 in 10.0 mi Calm Calm - N/A   Clear
4:00 AM 32.0 °F 26.4 °F 28.4 °F 87% 30.21 in 10.0 mi NNW 5.8 mph - N/A   Clear
4:20 AM 32.0 °F 28.7 °F 30.2 °F 93% 30.22 in 10.0 mi NNE 3.5 mph - N/A   Clear
4:40 AM 32.0 °F - 28.4 °F 87% 30.22 in 10.0 mi Calm Calm - N/A   Clear
5:00 AM 30.2 °F - 28.4 °F 93% 30.22 in 7.0 mi Calm Calm - N/A   Clear
5:20 AM 30.2 °F - 28.4 °F 93% 30.23 in 5.0 mi Calm Calm - N/A   Clear
5:40 AM 28.4 °F - 28.4 °F 100% 30.23 in 7.0 mi Calm Calm - N/A   Clear
6:00 AM 30.2 °F 26.7 °F 28.4 °F 93% 30.23 in 10.0 mi NNE 3.5 mph - N/A   Clear
6:20 AM 30.2 °F - 28.4 °F 93% 30.23 in 7.0 mi Calm Calm - N/A   Clear
6:40 AM 30.2 °F - 28.4 °F 93% 30.23 in 7.0 mi Calm Calm - N/A   Clear
7:01 AM 30.2 °F 25.4 °F 28.4 °F 93% 30.23 in 7.0 mi NE 4.6 mph - N/A   Clear
7:21 AM 28.4 °F - 28.4 °F 100% 30.23 in 7.0 mi Calm Calm - N/A   Clear
7:41 AM 30.2 °F - 28.4 °F 93% 30.23 in 7.0 mi Calm Calm - N/A   Clear
8:01 AM 30.2 °F - 28.4 °F 93% 30.23 in 5.0 mi Calm Calm - N/A   Clear
8:21 AM 30.2 °F - 30.2 °F 100% 30.23 in 4.0 mi Calm Calm - N/A   Clear
8:41 AM 32.0 °F - 30.2 °F 93% 30.22 in 7.0 mi Calm Calm - N/A   Scattered Clouds
9:01 AM 32.0 °F - 30.2 °F 93% 30.23 in 7.0 mi Calm Calm - N/A   Scattered Clouds
9:21 AM 32.0 °F 28.7 °F 30.2 °F 93% 30.22 in 10.0 mi NE 3.5 mph - N/A   Scattered Clouds
9:41 AM 33.8 °F - 30.2 °F 87% 30.22 in 10.0 mi Calm Calm - N/A   Clear
10:01 AM 35.6 °F - 30.2 °F 81% 30.21 in 10.0 mi Calm Calm - N/A   Scattered Clouds
10:21 AM 37.4 °F - 30.2 °F 75% 30.20 in 10.0 mi Calm Calm - N/A   Scattered Clouds
10:41 AM 39.2 °F - 30.2 °F 70% 30.18 in 10.0 mi Calm Calm - N/A   Clear
11:01 AM 41.0 °F - 30.2 °F 65% 30.17 in 10.0 mi Calm Calm - N/A   Clear
11:21 AM 44.6 °F - 30.2 °F 57% 30.16 in 10.0 mi Calm Calm - N/A   Clear
11:40 AM 44.6 °F - 30.2 °F 57% 30.15 in 10.0 mi Calm Calm - N/A   Clear
12:01 PM 44.6 °F - 30.2 °F 57% 30.13 in 10.0 mi Calm Calm - N/A   Clear
12:21 PM 46.4 °F 45.2 °F 28.4 °F 50% 30.11 in 10.0 mi SSW 3.5 mph - N/A   Clear
12:41 PM 46.4 °F 44.3 °F 28.4 °F 50% 30.10 in 10.0 mi SSW 4.6 mph - N/A   Scattered Clouds
1:01 PM 46.4 °F - 28.4 °F 50% 30.09 in 10.0 mi Calm Calm - N/A   Scattered Clouds
1:21 PM 44.6 °F - 30.2 °F 57% 30.07 in 10.0 mi Calm Calm - N/A   Scattered Clouds
1:41 PM 46.4 °F - 28.4 °F 50% 30.06 in 10.0 mi Calm Calm - N/A   Clear
2:01 PM 48.2 °F - 28.4 °F 46% 30.05 in 10.0 mi Calm Calm - N/A   Clear
2:21 PM 50.0 °F - 28.4 °F 43% 30.03 in 10.0 mi Calm Calm - N/A   Clear
2:41 PM 50.0 °F - 28.4 °F 43% 30.02 in 10.0 mi Calm Calm - N/A   Clear
3:01 PM 50.0 °F - 28.4 °F 43% 30.02 in 10.0 mi Calm Calm - N/A   Clear
3:21 PM 51.8 °F - 28.4 °F 41% 30.01 in 10.0 mi Calm Calm - N/A   Clear
3:42 PM 53.6 °F - 26.6 °F 35% 30.00 in 10.0 mi SSE 3.5 mph - N/A   Clear
4:02 PM 53.6 °F - 26.6 °F 35% 30.00 in 10.0 mi SE 3.5 mph - N/A   Clear
4:22 PM 53.6 °F - 26.6 °F 35% 30.00 in 10.0 mi SE 4.6 mph - N/A   Clear
4:42 PM 51.8 °F - 28.4 °F 41% 30.00 in 10.0 mi South 5.8 mph - N/A   Clear
5:02 PM 51.8 °F - 28.4 °F 41% 30.00 in 10.0 mi South 3.5 mph - N/A   Clear
5:22 PM 50.0 °F - 28.4 °F 43% 29.99 in 10.0 mi South 5.8 mph - N/A   Clear
5:42 PM 50.0 °F - 28.4 °F 43% 29.99 in 10.0 mi SSW 3.5 mph - N/A   Clear
6:02 PM 50.0 °F - 28.4 °F 43% 29.99 in 10.0 mi Calm Calm - N/A   Clear
6:22 PM 50.0 °F - 28.4 °F 43% 30.00 in 10.0 mi Calm Calm - N/A   Clear
6:42 PM 48.2 °F - 28.4 °F 46% 30.00 in 10.0 mi Calm Calm - N/A   Clear
7:02 PM 46.4 °F - 28.4 °F 50% 30.00 in 10.0 mi Calm Calm - N/A   Clear
7:22 PM 46.4 °F - 28.4 °F 50% 29.99 in 10.0 mi Calm Calm - N/A   Clear
7:42 PM 46.4 °F - 30.2 °F 53% 29.98 in 10.0 mi Calm Calm - N/A   Clear
8:02 PM 44.6 °F - 30.2 °F 57% 29.98 in 10.0 mi Calm Calm - N/A   Clear
8:22 PM 44.6 °F - 30.2 °F 57% 29.97 in 10.0 mi Calm Calm - N/A   Clear
8:42 PM 42.8 °F 39.3 °F 30.2 °F 61% 29.96 in 10.0 mi NW 5.8 mph - N/A   Clear
9:02 PM 42.8 °F 40.1 °F 30.2 °F 61% 29.96 in 10.0 mi NNW 4.6 mph - N/A   Clear
9:22 PM 42.8 °F 40.1 °F 30.2 °F 61% 29.96 in 10.0 mi NNW 4.6 mph - N/A   Clear
9:42 PM 42.8 °F 39.3 °F 32.0 °F 66% 29.95 in 10.0 mi NNW 5.8 mph - N/A   Clear
10:02 PM 42.8 °F 39.3 °F 32.0 °F 66% 29.94 in 10.0 mi NNW 5.8 mph - N/A   Clear
10:22 PM 41.0 °F 38.0 °F 32.0 °F 70% 29.94 in 10.0 mi NNW 4.6 mph - N/A   Clear
10:42 PM 41.0 °F 39.0 °F 32.0 °F 70% 29.92 in 10.0 mi NNW 3.5 mph - N/A   Clear
11:02 PM 39.2 °F - 32.0 °F 75% 29.91 in 10.0 mi Calm Calm - N/A   Clear
11:22 PM 37.4 °F - 32.0 °F 81% 29.90 in 10.0 mi Calm Calm - N/A   Clear
11:42 PM 39.2 °F - 32.0 °F 75% 29.90 in 10.0 mi Calm Calm - N/A   Clear